Location: Dompnac
(44.5644°N, 4.1026°E)
Time: 18:38:25
(UTC+00:00)

Cosmos 1634 Rocket - Pass Details

Date: 20 January 2021
Orbit: 961 x 991 km, 82.9° (Epoch: 05 March)

Event Time Altitude Azimuth Distance (km) Brightness Sun altitude
Rises 18:09:26 0° 343° (NNW) 3,677 7.1 -16.4°
Reaches altitude 10° 18:12:11 10° 334° (NNW) 2,730 6.5 -16.9°
Maximum altitude 18:17:36 32° 274° (W) 1,619 5.9 -17.8°
Drops below altitude 10° 18:23:01 10° 214° (SSW) 2,732 6.9 -18.8°
Sets 18:25:47 0° 204° (SSW) 3,680 7.5 -19.3°
